Tracking 34408 objects as of 14-Jun-2026
HD Live streaming from Space Station
objects crossing your sky now

THORAD AGENA D DEB

Track THORAD AGENA D DEB now!
10-day predictions


NORAD ID: 42500
Int'l Code: 1970-025RE
Perigee: 1,057.7 km
Apogee: 1,071.5 km
Inclination: 99.4 °
Period: 106.3 minutes
Semi major axis: 7435 km
RCS: Unknown
Launch date: April 8, 1970
Source: United States (US)
Launch site: AIR FORCE WESTERN TEST RANGE (AFWTR)

Note: This is SATELLITE DEBRIS
Your satellite tracking list
Your tracking list is empty




NASA's NSSDC Master Catalog

Two Line Element Set (TLE):
1 42500U 70025RE  26164.85548909  .00000077  00000-0  17583-3 0  9993
2 42500  99.4383  25.6091 0009263 252.2280 172.0376 13.54027974620436
Source of the keplerian elements: AFSPC